Location: Br�ttisellen
(47.4227°N, 8.6287°E)
Time: 13:44:09
(UTC+00:00)

CZ-2C R/B - Pass Details

Date: 09 April 2020
Orbit: 639 x 705 km, 98.4° (Epoch: 03 June)

Event Time Altitude Azimuth Distance (km) Brightness Sun altitude
Rises 18:48:11 0° 21° (NNE) 3,082 7.1 -7.5°
Reaches altitude 10° 18:50:38 10° 30° (NNE) 2,151 6.2 -7.9°
Maximum altitude 18:54:57 35° 97° (E) 1,095 4.3 -8.6°
Drops below altitude 10° 18:59:09 10° 163° (SSE) 2,097 5.9 -9.2°
Sets 19:01:31 0° 172° (S) 2,994 6.8 -9.6°
